Regional Weather Roundup
Issued by NWS

Home | Current Version | Previous Version | Text Only | Print | Product List | Glossary Off
Versions: 1 2 3 4 5 6 7 8 9 10 11 12 13 14 15 16 17 18 19 20 21 22 23 24 25 26 27 28 29 30 31 32 33 34 35 36 37 38 39 40 41 42 43 44 45 46 47 48 49 50

000
ASUS45 KPSR 192210
RWRAZ

ARIZONA REGIONAL HOURLY WEATHER ROUNDUP
NATIONAL WEATHER SERVICE PHOENIX AZ
300 PM MST FRI DEC 19 2014

NOTE: FAIR INDICATES FEW OR NO CLOUDS BELOW 12,000 FEET WITH NO
SIGNIFICANT WEATHER AND/OR OBSTRUCTIONS TO VISIBILITY.

AZZ001>003-036-192300-
NORTHWEST ARIZONA

CITY           SKY/WX    TMP DP  RH WIND       PRES   REMARKS
BULLHEAD CITY  SUNNY     59  39  47 N5        30.19S
KINGMAN        SUNNY     54  30  40 W7        30.18S
$$

AZZ004>008-015-016-018-192300-
NORTH CENTRAL ARIZONA

CITY           SKY/WX    TMP DP  RH WIND       PRES   REMARKS
GRAND CANYON   PTSUNNY   41  29  62 W3        30.19S
PRESCOTT       PTSUNNY   49  23  36 N8        30.18R
FLAGSTAFF      MOSUNNY   38  25  59 SW3       30.19R
PAYSON         SUNNY     48  30  49 VRB6      30.17F
PAGE           PTSUNNY   43  31  62 E5        30.20S
$$

AZZ009>014-017-192300-
NORTHEAST ARIZONA

CITY           SKY/WX    TMP DP  RH WIND       PRES   REMARKS
WINSLOW        MOSUNNY   42  32  67 E9        30.21F
SAINT JOHNS    SUNNY     42  27  55 N6        30.19F
WINDOW ROCK    SUNNY     42  21  43 N5        30.17S
SHOW LOW       SUNNY     39  25  56 NE6       30.21S WCI  35
$$

AZZ023-192300-
GREATER PHOENIX AREA

CITY           SKY/WX    TMP DP  RH WIND       PRES   REMARKS
PHOENIX        PTSUNNY   63  36  36 CALM      30.12F
BUCKEYE          N/A     61  39  44 CALM      30.15S
GLENDALE       MOSUNNY   63  37  39 CALM      30.17R
LUKE AFB       MOSUNNY   62  38  42 W3        30.13F
DEER VALLEY    MOSUNNY   61  35  37 NW5       30.13F
SCOTTSDALE     MOSUNNY   61  33  35 CALM      30.14F
MESA-GATEWAY   MOSUNNY   61  36  39 CALM      30.14F
CHANDLER       MOSUNNY   61  39  44 VRB6      30.13F
$$

AZZ027-028-192300-
SOUTHWEST MARICOPA COUNTY AND PINAL COUNTY

CITY           SKY/WX    TMP DP  RH WIND       PRES   REMARKS
CASA GRANDE    SUNNY     61  37  41 CALM      30.12F
GILA BEND      MOCLDY    63  41  44 N9        30.13F
$$

AZZ503-504-507>509-192300-
SOUTHEAST ARIZONA

CITY           SKY/WX    TMP DP  RH WIND       PRES   REMARKS
TUCSON         SUNNY     60  37  42 N3        30.13F
DAVIS-MONTHAN  SUNNY     58  38  47 N3        30.11F
RYAN FIELD       N/A     61  43  51 NW5       30.14F
NOGALES        SUNNY     58  34  40 W8        30.10F
SIERRA VISTA   MOSUNNY   52  28  40 CALM      30.14F
DOUGLAS        SUNNY     56  33  42 VRB6      30.13F
SAFFORD        SUNNY     49  38  65 VRB3      30.16F
$$

AZZ020-021-025-026-031-192300-
SOUTHWEST ARIZONA

CITY           SKY/WX    TMP DP  RH WIND       PRES   REMARKS
YUMA           MOSUNNY  N/A N/A N/A CALM      30.14F
$$

CAZ031-033-041-043-047-048-061-192300-
SOUTHERN CALIFORNIA

CITY           SKY/WX    TMP DP  RH WIND       PRES   REMARKS
DOWNTOWN L.A.  CLOUDY    63  47  55 CALM      30.16F
L.A. AIRPORT   CLOUDY    61  50  67 W8        30.16F
SAN DIEGO      MOSUNNY   66  46  48 NW10      30.18R
BURBANK        CLOUDY    63  44  50 SW3       30.15F
ONTARIO        PTSUNNY   63  41  44 W7        30.16F
RIVERSIDE      PTSUNNY   63  42  46 VRB5      30.16F
PALM SPRINGS   MOSUNNY   66  37  34 SE5       30.17F
EL CENTRO NAS  MOSUNNY   67  41  38 NE3       30.16S
IMPERIAL       SUNNY     67  42  40 NW3       30.15F
BLYTHE         SUNNY     62  43  49 CALM      30.17F
NEEDLES        SUNNY     61  40  45 CALM      30.18F
$$

NVZ020-UTZ003-192300-
SOUTHERN NEVADA-UTAH

CITY           SKY/WX    TMP DP  RH WIND       PRES   REMARKS
LAS VEGAS      MOSUNNY   54  38  54 SE3       30.14F
SALT LAKE CITY PTSUNNY   46  26  45 S15G21    30.11F
$$

NMZ009-TXZ055-192300-
NEW MEXICO-WEST TEXAS

CITY           SKY/WX    TMP DP  RH WIND       PRES   REMARKS
ALBUQUERQUE    MOSUNNY   44  23  43 N14       30.18S
EL PASO        MOSUNNY   53  34  48 VRB3      30.14F
$$


........................KEY........................
SKY/WX - SKY CONDITION/WEATHER
TMP    - TEMPERATURE IN FAHRENHEIT
DP     - DEW POINT IN FAHRENHEIT
RH     - RELATIVE HUMIDITY IN PERCENT
WIND   - DIRECTION AND SPEED IN MILES PER HOUR (MPH)
VRB    - VARIABLE WIND DIRECTION
PRES   - MEAN SEA LEVEL PRESSURE IN INCHES OF MERCURY
         F - FALLING PRESSURE   R - RISING PRESSURE
         S - STEADY PRESSURE
VSB    - VISIBILITY IN MILES
HX     - HEAT INDEX IN FAHRENHEIT
WCI    - WIND CHILL INDEX IN FAHRENHEIT
TC     - TEMPERATURE IN CELSIUS WHICH IS ALSO KNOWN AS
         TEMPERATURE IN CENTIGRADE
AFB    - AIR FORCE BASE
         LUKE AFB IS LUKE AIR FORCE BASE
         DAVIS-MONTHAN IS DAVIS-MONTHAN AIR FORCE BASE
NAS    - NAVAL AIR STATION
         EL CENTRO NAS IS EL CENTRO NAVAL AIR STATION
N/A    - NOT AVAILABLE


USA.gov is the U.S. government's official web portal to all federal, state and local government web resources and services.